User: anonymous   Login
Location: Keeble Observatory
(37.7625°N, 77.4755°W)
Time: 11:54:53
(UTC-05:00)
Language:

Cosmos 1484 Rocket - Orbit

View from above orbital plane
View from above orbital plane
View from above satellite
View from above satellite

Ground track
Ground track

The orbit data is extracted from the following two-line orbital elements,

1 14208U 83075B   16038.65350751  .00001365  00000-0  87028-4 0  9992
2 14208  97.3650  63.1803 0041246  41.6254 318.8102 15.09666713772729
Epoch (UTC): 07 February 2016 15:41:03
Eccentricity: 0.0041246
inclination: 97.3650°
perigee height: 509 km
apogee height: 566 km
right ascension of ascending node: 63.1803°
argument of perigee: 41.6254°
revolutions per day: 15.09666713
mean anomaly at epoch: 318.8102°
orbit number at epoch: 77272

The dashed part of the orbit path shows where the satellite is in the earth's shadow,  

DLR